This is the latest recevied weather packets stored in our database for station/object AD7ZD. If no packets are shown the sender has not sent any weather packets the latest 10 day(s).
| Time | Temp. | Humidity | Pressure | Rain* | Wind** | Luminosity | Snow |
|---|---|---|---|---|---|---|---|
| 1777599719 | 20° C | 19% | 1012.9 hPa | 0 mm | - | 42 W/m² | - |
| 1777599414 | 20.56° C | 20% | 1012.8 hPa | 0 mm | - | 84 W/m² | - |
| 1777599113 | 20.56° C | 20% | 1012.8 hPa | 0 mm | - | 149 W/m² | - |
| 1777598810 | 21.11° C | 19% | 1012.7 hPa | 0 mm | - | 169 W/m² | - |
| 1777598509 | 21.11° C | 20% | 1012.7 hPa | 0 mm | - | 199 W/m² | - |
| 1777598205 | 21.11° C | 18% | 1012.7 hPa | 0 mm | - | 187 W/m² | - |
| 1777597903 | 20.56° C | 18% | 1012.7 hPa | 0 mm | - | 218 W/m² | - |
| 1777597598 | 20.56° C | 18% | 1012.8 hPa | 0 mm | - | 241 W/m² | - |
| 1777597293 | 20.56° C | 19% | 1012.8 hPa | 0 mm | - | 272 W/m² | - |
| 1777596989 | 21.11° C | 19% | 1012.7 hPa | 0 mm | - | 253 W/m² | - |
| 1777596686 | 21.11° C | 18% | 1012.7 hPa | 0 mm | - | 294 W/m² | - |
| 1777596383 | 20.56° C | 18% | 1012.8 hPa | 0 mm | - | 218 W/m² | - |
| 1777596080 | 20.56° C | 19% | 1012.7 hPa | 0 mm | - | 177 W/m² | - |
| 1777595775 | 20.56° C | 19% | 1012.6 hPa | 0 mm | - | 299 W/m² | - |
| 1777595470 | 20.56° C | 19% | 1012.7 hPa | 0 mm | - | 317 W/m² | - |
| 1777595167 | 20.56° C | 19% | 1012.7 hPa | 0 mm | - | 254 W/m² | - |
| 1777594863 | 20.56° C | 19% | 1012.8 hPa | 0 mm | - | 346 W/m² | - |
| 1777594560 | 21.11° C | 19% | 1012.8 hPa | 0 mm | - | 346 W/m² | - |
| 1777594256 | 20.56° C | 19% | 1012.8 hPa | 0 mm | - | 384 W/m² | - |
| 1777593952 | 21.11° C | 22% | 1012.9 hPa | 0 mm | - | 383 W/m² | - |
| 1777593648 | 20.56° C | 19% | 1012.9 hPa | 0 mm | - | 411 W/m² | - |
| 1777593345 | 20.56° C | 20% | 1012.7 hPa | 0 mm | - | 421 W/m² | - |
| 1777593044 | 21.11° C | 19% | 1012.7 hPa | 0 mm | - | 437 W/m² | - |
| 1777592743 | 20.56° C | 20% | 1012.8 hPa | 0 mm | - | 449 W/m² | - |
| 1777592440 | 21.11° C | 22% | 1012.9 hPa | 0 mm | - | 469 W/m² | - |
* Rain latest hour (hover to see other rain measurements)
** Current wind speed in m/s (hover to see current wind gust speed)